ネオワイズ彗星

C/2020 F3 ( NEOWISE )

English version
Home page
Updated on November 7, 2020

---------------------------------------------------------------------

・ プロフィール

発見日 2020年3月27日
発見光度 17等
発見者 Near-Earth Object Wide-field Infrared Survey Explorer

・ 写真集

・ 軌道要素

Epoch 2020 July 10.0 TT = JDT 2459040.5
T 2020 July 3.67908 TT                                  Rudenko
q   0.2946493            (2000.0)            P               Q
z  +0.0027574      Peri.   37.27882     +0.71860079     +0.14386800
 +/-0.0000017      Node    61.01054     +0.28190300     -0.95464027
e   0.9991875      Incl.  128.93729     +0.63572290     +0.26069896
From 1399 observations 2020 Mar. 27-Sept. 30, mean residual 0".8.

・ 星図

・ 光度変化

        m1 = 3.5 + 5 logΔ + 30   log r  [   ,-66]  (              〜2020年 4月28日)
        m1 = 7.0 + 5 logΔ + 12.0 log r  [-66,  0]  (2020年 4月28日〜2020年 7月 3日)
        m1 = 6.0 + 5 logΔ + 10.0 log r  [  0, 68]  (2020年 7月 3日〜2020年 9月 9日)
        m1 = 5.0 + 5 logΔ + 15.0 log r  [ 68,   ]  (2020年 9月 9日〜              )

---------------------------------------------------------------------

軌道要素はM.P.E.C. 2020-U96に掲載されたものです。
星図はステラナビゲータ Ver.10 (アストロアーツ) で作成したものです。
光度グラフはComet for Windowsで作成したものです。

---------------------------------------------------------------------

Copyright(C) Seiichi Yoshida (comet@aerith.net). All rights reserved.